WODKAN Weather Reports


Display with metric or nautical units.
time (UTC)temp
F
wind
direction
speed
MPH
gust
MPH
rain 1hr
in
rain 24hr
in
rain mn
in
humidity
%
barometer
mb
20260508054337 47 286 2.0 5.0 0.00 0.04 0.00 85 1016.0
20260508053835 47 286 2.0 5.0 0.00 0.04 0.00 85 1015.9
20260508053354 47 286 3.0 5.0 0.00 0.04 0.00 85 1016.0
20260508052833 47 287 3.0 5.0 0.00 0.04 0.00 85 1015.9
20260508052337 47 286 2.0 6.0 0.00 0.04 0.00 85 1015.8
20260508051837 47 284 4.0 6.0 0.00 0.04 0.00 85 1015.9
20260508051342 47 287 2.0 5.0 0.00 0.04 0.00 85 1016.0
20260508050841 47 308 2.0 5.0 0.00 0.04 0.00 85 1015.9
20260508050343 47 309 3.0 5.0 0.00 0.04 0.00 85 1015.9
20260508045837 47 277 3.0 6.0 0.00 0.04 0.00 84 1015.9
20260508045335 47 273 4.0 6.0 0.00 0.04 0.00 84 1015.7
20260508044838 47 313 1.0 5.0 0.00 0.04 0.00 84 1015.7
20260508044344 47 321 2.0 4.0 0.00 0.04 0.00 84 1015.8
20260508043827 47 321 0.0 4.0 0.00 0.04 0.00 84 1015.8
20260508043329 47 321 2.0 4.0 0.00 0.04 0.00 84 1015.7
20260508042831 47 336 2.0 3.0 0.00 0.04 0.00 84 1015.6
20260508042334 47 355 0.0 4.0 0.00 0.04 0.00 84 1015.5
20260508041833 47 360 1.0 4.0 0.00 0.04 0.00 84 1015.4
20260508041335 47 355 2.0 5.0 0.00 0.04 0.00 84 1015.4
20260508040838 47 329 1.0 5.0 0.00 0.04 0.00 84 1015.4
20260508040343 47 318 2.0 4.0 0.00 0.04 0.00 84 1015.3
20260508035833 47 355 1.0 4.0 0.00 0.04 0.00 84 1015.2
20260508035335 47 360 0.0 3.0 0.00 0.04 0.00 84 1015.2
20260508034834 47 350 1.0 3.0 0.00 0.08 0.00 84 1015.2
20260508034332 47 350 0.0 2.0 0.00 0.08 0.00 84 1015.2
20260508033835 47 350 0.0 3.0 0.00 0.08 0.00 84 1015.2
20260508033352 47 350 0.0 5.0 0.00 0.08 0.00 84 1015.2
20260508032831 47 15 0.0 5.0 0.00 0.08 0.00 84 1015.1
20260508032337 47 319 1.0 4.0 0.00 0.08 0.00 84 1015.1
20260508031835 47 319 1.0 4.0 0.00 0.08 0.00 84 1015.2
20260508031401 47 319 2.0 4.0 0.00 0.08 0.00 84 1015.1
20260508030842 47 317 2.0 5.0 0.00 0.08 0.00 83 1015.0
20260508030343 47 317 2.0 5.0 0.00 0.08 0.00 83 1015.0
20260508025834 47 345 2.0 5.0 0.00 0.08 0.00 83 1015.0
20260508025338 47 9 2.0 6.0 0.00 0.08 0.00 83 1015.0
20260508024840 47 329 3.0 6.0 0.00 0.08 0.00 83 1014.9
20260508024359 47 315 1.0 4.0 0.00 0.08 0.00 83 1014.9
20260508023840 47 338 1.0 3.0 0.00 0.08 0.00 83 1015.0
20260508023406 47 338 1.0 4.0 0.00 0.08 0.00 82 1015.0
20260508022844 47 338 2.0 5.0 0.00 0.08 0.00 83 1015.0
20260508022345 47 333 1.0 7.0 0.00 0.08 0.00 82 1015.0
20260508021904 47 5 3.0 7.0 0.00 0.08 0.00 82 1015.0
20260508021343 47 342 2.0 6.0 0.00 0.08 0.00 82 1014.9
20260508020846 47 326 2.0 5.0 0.00 0.08 0.00 82 1014.9
20260508020402 47 309 2.0 5.0 0.00 0.08 0.00 81 1014.9
20260508015830 47 329 3.0 5.0 0.00 0.08 0.00 81 1014.9
20260508015334 47 311 1.0 4.0 0.00 0.08 0.00 81 1014.9
20260508014853 47 341 2.0 4.0 0.00 0.08 0.00 81 1014.9
20260508014351 47 13 1.0 5.0 0.00 0.08 0.00 81 1015.0
20260508013829 47 355 2.0 5.0 0.00 0.08 0.00 81 1015.0
20260508013330 47 335 0.0 6.0 0.00 0.08 0.00 80 1015.0
20260508012834 47 335 2.0 7.0 0.00 0.08 0.00 80 1015.0
20260508012332 48 355 3.0 7.0 0.00 0.08 0.00 80 1015.0
20260508011831 48 360 4.0 7.0 0.00 0.08 0.00 80 1015.0
20260508011336 48 343 3.0 6.0 0.00 0.08 0.00 80 1015.0
20260508010836 48 323 3.0 5.0 0.00 0.08 0.00 80 1015.2
20260508010603 48 355 2.0 5.0 0.00 0.08 0.00 80 1015.2
20260508005828 48 326 1.0 4.0 0.00 0.08 0.00 80 1015.1
20260508005329 48 326 1.0 4.0 0.00 0.08 0.00 80 1015.2
20260508004833 48 325 1.0 5.0 0.00 0.08 0.00 80 1015.2
20260508004357 48 298 3.0 5.0 0.00 0.08 0.00 80 1015.1
20260508003842 48 288 0.0 6.0 0.00 0.08 0.00 80 1015.0
20260508003327 48 360 4.0 6.0 0.00 0.08 0.00 80 1015.0
20260508002831 48 317 1.0 4.0 0.00 0.08 0.00 80 1014.9
20260508002335 48 313 1.0 6.0 0.00 0.08 0.00 80 1014.9
20260508001837 48 309 3.0 6.0 0.00 0.08 0.00 80 1014.9
20260508001341 48 9 2.0 7.0 0.00 0.08 0.00 80 1014.9
20260508000901 49 346 2.0 7.0 0.00 0.08 0.00 80 1014.9
20260508000342 49 298 3.0 6.0 0.00 0.08 0.00 80 1014.8
20260507235837 49 313 1.0 5.0 0.00 0.08 0.00 80 1014.8
20260507235334 49 329 2.0 7.0 0.00 0.08 0.00 80 1014.8
20260507234833 49 346 2.0 7.0 0.00 0.24 0.00 80 1014.7
20260507234332 49 298 2.0 5.0 0.00 0.24 0.00 80 1014.8
20260507233831 49 292 1.0 5.0 0.00 0.24 0.00 80 1014.9
20260507233332 49 311 2.0 5.0 0.00 0.24 0.00 80 1014.8
20260507232831 49 305 1.0 4.0 0.00 0.24 0.00 80 1014.7
20260507232354 49 304 1.0 4.0 0.00 0.24 0.00 80 1014.7
20260507231855 49 336 0.0 6.0 0.00 0.24 0.00 80 1014.6
20260507231336 49 336 2.0 6.0 0.00 0.24 0.00 80 1014.6
20260507230836 49 313 2.0 6.0 0.00 0.24 0.00 80 1014.7
20260507230338 49 355 3.0 6.0 0.00 0.24 0.00 80 1014.5
20260507225832 50 306 2.0 5.0 0.00 0.24 0.00 80 1014.5
20260507225334 50 338 2.0 4.0 0.00 0.24 0.00 80 1014.5
20260507224833 50 340 1.0 5.0 0.00 0.39 0.00 80 1014.5
20260507224356 50 339 3.0 5.0 0.00 0.39 0.00 80 1014.6
20260507223854 50 315 3.0 5.0 0.00 0.39 0.00 80 1014.6
20260507223355 50 342 1.0 4.0 0.00 0.39 0.00 80 1014.7
20260507222836 50 333 1.0 5.0 0.00 0.39 0.00 80 1014.6
20260507221834 50 313 0.0 5.0 0.00 0.39 0.00 80 1014.4
20260507221336 50 355 1.0 4.0 0.00 0.39 0.00 80 1014.4
20260507220839 50 355 2.0 4.0 0.00 0.39 0.00 80 1014.3
20260507220345 50 331 1.0 4.0 0.00 0.39 0.00 81 1014.3
20260507215856 50 332 0.0 4.0 0.00 0.39 0.00 81 1014.3
20260507215336 50 12 1.0 4.0 0.00 0.39 0.00 81 1014.3
20260507214839 50 12 1.0 4.0 0.00 0.51 0.08 81 1014.3
20260507214342 50 21 2.0 6.0 0.00 0.51 0.08 81 1014.3
20260507213904 50 321 2.0 6.0 0.00 0.51 0.08 81 1014.2
20260507213405 50 18 0.0 5.0 0.00 0.51 0.08 81 1014.2
20260507212823 50 310 4.0 5.0 0.00 0.51 0.08 81 1014.2
20260507212331 50 330 1.0 5.0 0.00 0.51 0.08 81 1014.2
20260507211830 50 320 2.0 5.0 0.00 0.51 0.08 81 1014.3
20260507211332 50 346 1.0 3.0 0.00 0.51 0.08 81 1014.4
20260507210831 50 346 0.0 3.0 0.00 0.51 0.08 81 1014.4
20260507210331 50 346 1.0 3.0 0.00 0.51 0.08 81 1014.5
20260507205843 50 346 0.0 3.0 0.00 0.51 0.08 81 1014.5
20260507205341 50 346 1.0 3.0 0.00 0.51 0.08 81 1014.4
20260507204840 50 344 0.0 3.0 0.00 0.75 0.08 81 1014.2
20260507204343 50 344 0.0 3.0 0.00 0.75 0.08 81 1014.3
20260507203842 50 344 0.0 3.0 0.00 0.75 0.08 81 1014.2
20260507203346 50 344 0.0 5.0 0.00 0.75 0.08 81 1014.1
20260507202846 50 346 3.0 6.0 0.00 0.75 0.08 81 1014.1
20260507202329 50 355 2.0 6.0 0.00 0.75 0.08 81 1014.2
20260507201828 50 311 0.0 5.0 0.00 0.75 0.08 81 1014.1
20260507201348 50 311 3.0 5.0 0.00 0.75 0.08 81 1014.1
20260507200828 51 314 1.0 5.0 0.00 0.75 0.08 81 1014.0
20260507200346 51 346 2.0 5.0 0.00 0.75 0.08 81 1014.0
20260507195857 51 355 2.0 5.0 0.00 0.75 0.08 81 1013.8
20260507195338 51 325 1.0 4.0 0.00 0.75 0.08 81 1013.8
20260507194837 51 5 1.0 5.0 0.00 0.75 0.08 81 1013.8
20260507194338 51 19 1.0 6.0 0.00 0.75 0.08 81 1013.8
20260507193842 51 46 3.0 6.0 0.00 0.75 0.08 81 1013.8
20260507193408 51 329 3.0 5.0 0.00 0.75 0.08 81 1013.8
20260507192845 51 355 1.0 4.0 0.00 0.75 0.08 81 1013.8
20260507192332 51 355 1.0 4.0 0.00 0.75 0.08 81 1013.7
20260507191830 51 355 2.0 4.0 0.00 0.75 0.08 81 1013.7
20260507191333 51 355 1.0 4.0 0.00 0.75 0.08 81 1013.7
20260507190836 51 344 0.0 4.0 0.00 0.75 0.08 81 1013.6
20260507190337 51 343 1.0 4.0 0.00 0.75 0.08 81 1013.4
20260507185838 51 328 2.0 5.0 0.00 0.75 0.08 81 1013.3
20260507185344 51 343 1.0 7.0 0.00 0.75 0.08 80 1013.4
20260507184823 51 30 3.0 7.0 0.00 0.75 0.08 80 1013.4
20260507184329 51 338 2.0 5.0 0.00 0.75 0.08 80 1013.4
20260507183828 51 341 1.0 5.0 0.00 0.75 0.08 81 1013.3
20260507183332 51 325 2.0 5.0 0.00 0.75 0.08 81 1013.2
20260507182832 51 332 1.0 4.0 0.00 0.75 0.08 81 1013.0
20260507182336 51 60 1.0 3.0 0.00 0.75 0.08 81 1013.0
20260507181837 51 61 1.0 4.0 0.00 0.75 0.08 80 1012.9
20260507181344 51 61 2.0 5.0 0.00 0.75 0.08 80 1012.9
20260507180828 51 334 2.0 5.0 0.00 0.75 0.08 80 1012.8
20260507180352 51 355 0.0 4.0 0.00 0.75 0.08 81 1012.9
20260507175826 51 9 1.0 4.0 0.00 0.75 0.08 81 1012.9
20260507175329 51 360 0.0 5.0 0.00 0.75 0.08 80 1012.8
20260507174828 51 355 2.0 5.0 0.00 0.75 0.08 80 1012.8
20260507174330 52 5 1.0 5.0 0.00 0.75 0.08 81 1012.8
20260507173829 51 13 1.0 5.0 0.00 0.75 0.08 80 1012.8
20260507173332 51 36 3.0 6.0 0.00 0.75 0.08 80 1012.7
20260507172832 52 23 2.0 6.0 0.00 0.75 0.08 80 1012.7
20260507172336 52 323 2.0 4.0 0.00 0.75 0.08 80 1012.6
20260507171839 52 325 1.0 3.0 0.00 0.75 0.08 80 1012.5
20260507171344 52 323 0.0 3.0 0.00 0.75 0.08 80 1012.5
20260507170827 52 323 1.0 5.0 0.00 0.75 0.08 80 1012.5
20260507170327 52 315 1.0 5.0 0.00 0.75 0.08 80 1012.3
20260507165842 52 39 1.0 5.0 0.00 0.75 0.08 80 1012.2
20260507165343 52 40 2.0 5.0 0.00 0.75 0.08 80 1012.2
20260507164843 52 306 2.0 7.0 0.00 0.75 0.08 80 1012.1
20260507164403 52 27 2.0 7.0 0.00 0.75 0.08 80 1012.0
20260507163901 52 333 2.0 7.0 0.00 0.75 0.08 80 1012.0
20260507163338 52 331 3.0 7.0 0.00 0.75 0.08 80 1012.0
20260507162840 52 343 1.0 8.0 0.00 0.75 0.08 81 1011.9
20260507162340 52 57 3.0 8.0 0.00 0.75 0.08 81 1011.8
20260507161840 52 52 4.0 8.0 0.00 0.75 0.08 81 1011.8
20260507161357 52 21 5.0 8.0 0.00 0.75 0.08 80 1011.9
20260507160835 52 333 4.0 9.0 0.00 0.75 0.08 80 1011.9
20260507160337 52 5 3.0 9.0 0.00 0.75 0.08 80 1011.9
20260507155834 52 32 4.0 9.0 0.00 0.75 0.08 80 1011.9
20260507155334 53 337 3.0 8.0 0.00 0.75 0.08 80 1011.9
20260507154838 53 53 3.0 8.0 0.00 0.75 0.08 80 1011.9
20260507154405 53 302 3.0 8.0 0.00 0.75 0.08 80 1011.9
20260507153843 53 295 3.0 7.0 0.00 0.75 0.08 80 1011.7
20260507153347 53 5 4.0 8.0 0.00 0.75 0.08 80 1011.7
20260507152845 53 9 4.0 8.0 0.00 0.75 0.08 80 1011.7
20260507152327 53 351 2.0 7.0 0.00 0.75 0.08 79 1011.7
20260507151830 54 351 1.0 8.0 0.00 0.75 0.08 79 1011.8
20260507151333 54 292 3.0 8.0 0.00 0.75 0.08 79 1011.8
20260507150832 54 28 4.0 8.0 0.00 0.75 0.08 79 1011.7
20260507150336 54 329 2.0 10.0 0.00 0.75 0.08 79 1011.7
20260507145826 54 327 5.0 10.0 0.00 0.75 0.08 79 1011.6
20260507145332 54 321 4.0 9.0 0.00 0.75 0.08 79 1011.6
20260507144852 54 5 4.0 9.0 0.00 0.75 0.08 79 1011.7
20260507144331 54 17 3.0 9.0 0.00 0.75 0.08 79 1011.6
20260507143834 54 321 2.0 10.0 0.00 0.75 0.08 79 1011.6
20260507143336 54 23 5.0 10.0 0.00 0.75 0.08 79 1011.6
20260507142835 55 272 2.0 6.0 0.00 0.75 0.08 79 1011.6
20260507142358 55 295 1.0 8.0 0.00 0.75 0.08 79 1011.5
20260507141839 55 355 3.0 10.0 0.00 0.75 0.08 79 1011.6
20260507141343 55 319 4.0 10.0 0.00 0.75 0.08 79 1011.6
20260507140842 55 306 3.0 9.0 0.00 0.75 0.08 79 1011.6
20260507140345 56 313 4.0 9.0 0.00 0.75 0.08 79 1011.5
20260507135837 56 301 3.0 6.0 0.00 0.75 0.08 79 1011.8
20260507135335 56 325 4.0 6.0 0.00 0.75 0.08 78 1011.8
20260507134834 56 317 3.0 6.0 0.00 0.75 0.08 79 1011.7
20260507134341 56 305 3.0 6.0 0.00 0.75 0.08 79 1011.8
20260507133840 56 15 3.0 6.0 0.00 0.75 0.08 79 1011.7
20260507132835 56 314 2.0 6.0 0.00 0.75 0.08 79 1011.4
20260507132355 56 325 2.0 6.0 0.00 0.75 0.08 79 1011.4
20260507131835 56 311 3.0 6.0 0.00 0.75 0.08 79 1011.3
20260507131342 56 20 2.0 7.0 0.00 0.75 0.08 79 1011.3
20260507130840 56 19 2.0 7.0 0.00 0.75 0.08 79 1011.3
20260507130345 56 11 3.0 5.0 0.00 0.75 0.08 79 1011.3
20260507125828 56 360 2.0 5.0 0.00 0.75 0.08 79 1011.2
20260507125329 56 10 1.0 4.0 0.00 0.75 0.08 79 1011.2
20260507124827 56 10 1.0 5.0 0.00 0.75 0.08 79 1011.3
20260507124348 56 333 2.0 5.0 0.00 0.75 0.08 80 1011.2
20260507123847 56 329 3.0 5.0 0.00 0.75 0.08 80 1011.2
20260507123344 56 331 2.0 5.0 0.00 0.75 0.08 80 1011.1
20260507122903 56 77 3.0 5.0 0.00 0.75 0.08 80 1011.1
20260507122345 56 5 2.0 5.0 0.00 0.75 0.08 81 1011.0
20260507121902 55 63 2.0 6.0 0.00 0.75 0.08 81 1011.0
20260507121342 55 26 3.0 6.0 0.00 0.75 0.08 81 1011.1
20260507120842 55 19 2.0 5.0 0.00 0.75 0.08 82 1011.1
20260507120340 55 346 1.0 3.0 0.00 0.75 0.08 82 1011.1
20260507115835 55 346 0.0 3.0 0.00 0.75 0.08 82 1011.2
20260507115343 55 346 0.0 3.0 0.00 0.75 0.08 82 1011.2
20260507114823 55 346 1.0 4.0 0.00 0.75 0.08 82 1011.2
20260507114348 55 346 2.0 4.0 0.00 0.75 0.08 82 1011.3
20260507113345 55 12 2.0 5.0 0.00 0.75 0.08 83 1011.1
20260507112844 55 346 0.0 5.0 0.00 0.75 0.08 83 1011.1
20260507112408 54 346 2.0 5.0 0.00 0.75 0.08 84 1010.9
20260507111843 54 58 1.0 4.0 0.00 0.75 0.08 83 1011.1
20260507111345 54 30 1.0 5.0 0.00 0.75 0.08 84 1011.0
20260507110844 54 30 0.0 6.0 0.00 0.75 0.08 84 1011.0
20260507110342 54 31 2.0 6.0 0.00 0.75 0.08 84 1011.0
20260507105833 54 319 1.0 6.0 0.00 0.75 0.08 84 1010.9
20260507105336 53 320 3.0 6.0 0.00 0.75 0.08 84 1010.8
20260507104836 53 300 2.0 5.0 0.00 0.75 0.08 85 1010.8
20260507104344 53 280 2.0 5.0 0.00 0.75 0.08 85 1010.8
20260507103842 53 315 3.0 5.0 0.00 0.75 0.08 85 1010.7
20260507103346 53 308 1.0 5.0 0.00 0.75 0.08 85 1010.7
20260507102843 53 308 1.0 5.0 0.00 0.75 0.08 85 1010.7
20260507102343 53 329 3.0 8.0 0.00 0.75 0.08 85 1010.5
20260507101903 53 347 3.0 8.0 0.00 0.75 0.08 85 1010.3
20260507101336 53 5 2.0 6.0 0.00 0.75 0.08 85 1010.3
20260507100858 53 360 2.0 6.0 0.00 0.75 0.08 86 1010.2
20260507100340 53 339 1.0 5.0 0.00 0.75 0.08 85 1010.2
20260507095833 53 320 2.0 6.0 0.00 0.75 0.08 86 1010.2
20260507095356 52 349 3.0 6.0 0.00 0.75 0.08 86 1010.3
20260507094833 52 11 1.0 6.0 0.00 0.75 0.08 86 1010.2
20260507094335 52 34 3.0 6.0 0.00 0.75 0.08 86 1010.2
20260507093858 52 302 3.0 5.0 0.00 0.75 0.08 85 1010.2
20260507093337 52 323 2.0 4.0 0.00 0.75 0.08 85 1010.1
20260507092836 52 294 2.0 5.0 0.00 0.75 0.08 85 1010.1
20260507092335 52 317 2.0 5.0 0.00 0.75 0.08 85 1010.1
20260507091841 52 306 1.0 5.0 0.00 0.75 0.08 86 1010.1
20260507091341 52 340 2.0 5.0 0.00 0.75 0.08 86 1010.0
20260507090839 52 305 1.0 4.0 0.00 0.75 0.08 86 1010.0
20260507090341 52 324 2.0 4.0 0.00 0.75 0.08 86 1010.0
20260507085835 52 317 2.0 4.0 0.00 0.75 0.08 86 1009.8
20260507085331 51 334 1.0 5.0 0.00 0.75 0.08 85 1009.7
20260507084830 51 5 2.0 7.0 0.00 0.75 0.08 85 1009.6
20260507084333 51 355 2.0 7.0 0.00 0.75 0.08 85 1009.7
20260507083835 51 281 3.0 7.0 0.00 0.75 0.08 85 1009.6
20260507083332 51 293 2.0 7.0 0.00 0.75 0.08 85 1009.5
20260507082832 51 311 3.0 6.0 0.00 0.75 0.08 85 1009.5
20260507082336 51 275 3.0 5.0 0.00 0.75 0.08 85 1009.5
20260507081835 51 331 2.0 5.0 0.00 0.75 0.08 85 1009.4
20260507081342 51 327 2.0 5.0 0.00 0.75 0.08 85 1009.4
20260507080846 51 315 2.0 5.0 0.00 0.75 0.08 85 1009.2
20260507080405 51 346 1.0 7.0 0.00 0.75 0.08 85 1009.3
20260507075835 50 331 1.0 7.0 0.00 0.75 0.08 85 1009.3
20260507075336 50 319 3.0 7.0 0.00 0.75 0.08 85 1009.3
20260507074858 50 337 3.0 6.0 0.00 0.75 0.08 85 1009.2
20260507074338 50 346 1.0 7.0 0.04 0.75 0.08 85 1009.1
20260507073857 50 322 3.0 7.0 0.04 0.75 0.08 85 1009.1
20260507073348 51 325 3.0 7.0 0.04 0.75 0.08 85 1009.1
20260507072826 51 302 2.0 4.0 0.04 0.75 0.08 85 1009.1
20260507072328 51 337 1.0 6.0 0.04 0.75 0.08 85 1009.0
20260507071827 51 298 2.0 7.0 0.04 0.75 0.08 85 1008.9
20260507071330 51 343 4.0 7.0 0.04 0.75 0.08 85 1008.8
20260507070829 51 314 4.0 7.0 0.04 0.75 0.08 85 1008.7
20260507070330 51 296 3.0 6.0 0.04 0.75 0.08 85 1008.5
20260507065841 51 330 3.0 6.0 0.04 0.75 0.08 85 1008.4
20260507065344 51 22 3.0 6.0 0.04 0.75 0.08 85 1008.4
20260507064826 52 360 2.0 6.0 0.04 0.75 0.08 85 1008.3
20260507064330 52 311 0.0 6.0 0.00 0.71 0.07 85 1008.3
20260507063829 52 331 1.0 6.0 0.00 0.71 0.07 85 1008.2
20260507063330 52 309 2.0 6.0 0.00 0.71 0.07 85 1008.1
20260507062830 52 332 2.0 4.0 0.00 0.71 0.07 85 1008.0
20260507062334 52 37 1.0 5.0 0.00 0.71 0.07 85 1007.9
20260507061834 52 37 2.0 6.0 0.00 0.71 0.07 85 1007.9
20260507061337 52 40 1.0 8.0 0.00 0.71 0.07 85 1007.9
20260507060837 52 40 3.0 8.0 0.00 0.71 0.07 85 1008.0
20260507060337 52 333 2.0 7.0 0.00 0.71 0.07 85 1008.0
20260507055831 53 290 3.0 7.0 0.00 0.71 0.07 85 1008.0
20260507055336 53 328 3.0 6.0 0.00 0.71 0.07 85 1007.9
20260507054842 53 332 3.0 6.0 0.00 0.71 0.07 85 1007.8